{"data":{"norad_id":58634,"epoch":"2026-09-19T17:56:35.366784Z","epoch_age_seconds":214746,"freshness":"STALE","line1":"1 58634U 23203S   26262.74763156 -.00001744  00000+0 -53902-4 0  9993","line2":"2 58634  43.0039  50.7693 0001284 269.8598  90.2107 15.27562148154470","mean_motion":15.27562148,"eccentricity":0.0001284,"inclination_deg":43.0039,"raan_deg":50.7693,"arg_perigee_deg":269.8598,"mean_anomaly_deg":90.2107,"bstar":-5.3902e-5,"rev_number":15447,"period_min":94.267850370956,"perigee_km":482.22156871201,"apogee_km":483.98353502893,"semimajor_km":6861.2395518705,"source":"CELESTRAK","updated_at":"2026-09-21T09:00:33.940289Z"}}